TimeCDT,TemperatureF,Dew PointF,Humidity,Sea Level PressureIn,VisibilityMPH,Wind Direction,Wind SpeedMPH,Gust SpeedMPH,PrecipitationIn,Events,Conditions,WindDirDegrees,DateUTC
12:53 AM,75.0,71.1,87,30.04,10.0,Calm,Calm,-,N/A,,Clear,0,2012-07-16 05:53:00
1:53 AM,75.2,71.6,89,30.04,10.0,Calm,Calm,-,N/A,,Clear,0,2012-07-16 06:53:00
2:53 AM,73.0,71.1,93,30.03,10.0,Calm,Calm,-,N/A,,Clear,0,2012-07-16 07:53:00
3:53 AM,72.0,70.0,93,30.03,10.0,Calm,Calm,-,N/A,,Clear,0,2012-07-16 08:53:00
4:53 AM,73.0,70.0,90,30.03,10.0,Calm,Calm,-,N/A,,Clear,0,2012-07-16 09:53:00
5:53 AM,71.1,69.1,93,30.04,8.0,Calm,Calm,-,N/A,,Clear,0,2012-07-16 10:53:00
6:53 AM,75.0,72.0,90,30.06,10.0,Calm,Calm,-,N/A,,Clear,0,2012-07-16 11:53:00
7:53 AM,81.0,73.0,77,30.06,10.0,Calm,Calm,-,N/A,,Clear,0,2012-07-16 12:53:00
9:53 AM,88.0,71.1,57,30.05,10.0,SSW,9.2,-,N/A,,Clear,210,2012-07-16 14:53:00
10:53 AM,90.0,71.1,54,30.04,10.0,Variable,6.9,-,N/A,,Mostly Cloudy,0,2012-07-16 15:53:00
11:53 AM,91.9,70.0,48,30.04,10.0,SSW,8.1,-,N/A,,Scattered Clouds,210,2012-07-16 16:53:00
12:53 PM,91.0,69.1,48,30.02,10.0,SW,11.5,-,N/A,,Mostly Cloudy,220,2012-07-16 17:53:00
1:53 PM,91.0,69.1,48,29.99,10.0,SW,11.5,19.6,N/A,,Mostly Cloudy,230,2012-07-16 18:53:00
2:53 PM,93.0,69.1,45,29.97,10.0,SW,11.5,18.4,N/A,,Scattered Clouds,220,2012-07-16 19:53:00
3:53 PM,93.0,71.1,49,29.96,10.0,Variable,6.9,-,N/A,,Scattered Clouds,0,2012-07-16 20:53:00
4:53 PM,91.9,66.9,44,29.95,10.0,SW,10.4,20.7,N/A,,Clear,220,2012-07-16 21:53:00
5:53 PM,91.0,70.0,50,29.94,10.0,SSW,5.8,-,N/A,,Clear,210,2012-07-16 22:53:00
6:53 PM,89.1,69.1,52,29.93,10.0,SW,8.1,-,N/A,,Clear,220,2012-07-16 23:53:00
7:53 PM,86.0,70.0,59,29.92,10.0,SW,4.6,-,N/A,,Clear,220,2012-07-17 00:53:00
8:53 PM,84.0,70.0,63,29.91,10.0,SSW,4.6,-,N/A,,Clear,200,2012-07-17 01:53:00
9:53 PM,82.0,71.1,69,29.94,10.0,SSW,3.5,-,N/A,,Clear,210,2012-07-17 02:53:00
10:53 PM,80.1,71.1,74,29.94,10.0,SSW,3.5,-,N/A,,Clear,210,2012-07-17 03:53:00
11:53 PM,79.0,72.0,79,29.94,10.0,SSW,3.5,-,N/A,,Clear,200,2012-07-17 04:53:00